period_start,C,m1,H,J0,J1,J2,J3,J4,J5,JA,JB,JC,JD,JJ,JK,JN,#
2016-02-19 00:03:33,0.06,4.05,0.00,21.85,25.55,29.38,14.75,50.56,1027.38,2040.01,2025.26,2339.91,2553.23,600.10,604.84,49.31,0000 0000 0000 0000 000000
2016-02-19 00:08:34,0.06,4.06,0.00,21.88,25.56,29.44,14.81,50.53,1027.42,2040.00,2024.36,2339.24,2553.01,600.34,605.05,49.36,0000 0000 0000 0000 000000
2016-02-19 00:13:36,0.03,4.06,0.00,21.88,25.57,29.42,14.80,50.63,1027.56,2040.00,2023.63,2339.03,2552.99,599.88,604.54,49.41,0000 0000 0000 0000 000000
2016-02-19 00:18:37,0.05,4.06,0.00,21.89,25.60,29.41,14.79,50.63,1027.47,2039.99,2022.52,2339.00,2552.39,599.73,604.24,49.46,0000 0000 0000 0000 000000
2016-02-19 00:23:39,0.03,4.06,0.00,21.89,25.60,29.42,14.80,50.52,1027.51,2039.99,2021.45,2338.97,2552.01,600.08,604.74,49.51,0000 0000 0000 0000 000000
2016-02-19 00:28:40,0.04,4.06,0.00,21.91,25.62,29.45,14.77,50.69,1027.76,2039.99,2020.58,2338.74,2552.00,599.90,604.70,49.56,0000 0000 0000 0000 000000
2016-02-19 00:33:41,0.06,4.07,0.00,21.93,25.63,29.50,14.80,50.62,1027.85,2039.99,2019.73,2338.04,2551.81,600.20,605.04,49.61,0000 0000 0000 0000 000000
2016-02-19 00:38:43,0.04,4.07,0.00,21.94,25.65,29.50,14.77,50.63,1027.85,2039.98,2018.84,2338.00,2551.16,599.94,604.77,49.66,0000 0000 0000 0000 000000
2016-02-19 00:43:44,0.03,4.07,0.00,21.94,25.66,29.53,14.82,50.72,1027.85,2039.96,2017.89,2338.00,2551.00,600.11,604.80,49.71,0000 0000 0000 0000 000000
2016-02-19 00:48:45,0.03,4.07,0.00,21.95,25.67,29.52,14.81,50.76,1027.87,2039.92,2016.93,2337.93,2550.96,599.94,604.59,49.76,0000 0000 0000 0000 000000
2016-02-19 00:53:47,0.08,4.08,0.00,21.97,25.68,29.55,14.76,50.67,1027.96,2039.91,2015.99,2337.35,2550.39,599.86,604.59,49.82,0000 0000 0000 0000 000000
2016-02-19 00:58:48,0.03,4.08,0.00,21.97,25.70,29.57,14.75,50.53,1028.32,2039.67,2014.90,2337.01,2550.01,599.75,604.67,49.87,0000 0000 0000 0000 000000
2016-02-19 01:03:49,0.01,4.08,0.00,21.98,25.71,29.56,14.76,50.56,1028.34,2039.46,2013.78,2337.00,2549.97,599.39,604.51,49.92,0000 0000 0000 0000 000000
2016-02-19 01:08:50,0.07,4.08,0.00,21.98,25.72,29.57,14.82,50.71,1028.35,2039.27,2012.60,2336.63,2549.16,600.10,605.17,49.97,0000 0000 0000 0000 000000
2016-02-19 01:13:52,0.05,4.09,0.00,22.00,25.74,29.56,14.80,50.63,1028.37,2039.26,2011.49,2336.06,2549.00,599.85,604.89,50.02,0000 0000 0000 0000 000000
2016-02-19 01:18:52,0.01,4.09,0.00,22.01,25.75,29.56,14.78,50.69,1028.44,2039.09,2010.47,2336.00,2548.91,599.77,604.73,50.07,0000 0000 0000 0000 000000
2016-02-19 01:23:53,0.05,4.09,0.00,22.02,25.77,29.60,14.83,50.77,1028.66,2039.03,2009.35,2335.97,2548.18,599.73,604.93,50.12,0000 0000 0000 0000 000000
2016-02-19 01:28:55,0.06,4.09,0.00,22.04,25.78,29.60,14.86,50.77,1028.72,2039.04,2008.19,2335.51,2548.00,600.22,605.22,50.17,0000 0000 0000 0000 000000
2016-02-19 01:33:56,0.04,4.09,0.00,22.06,25.80,29.60,14.81,50.61,1028.80,2039.01,2007.17,2335.07,2547.90,600.37,605.61,50.22,0000 0000 0000 0000 000000
2016-02-19 01:38:58,0.05,4.10,0.00,22.08,25.81,29.60,14.77,50.58,1028.82,2039.00,2006.15,2335.00,2547.26,600.17,605.31,50.27,0000 0000 0000 0000 000000
2016-02-19 01:43:59,0.04,4.10,0.00,22.09,25.82,29.65,14.74,50.67,1028.82,2039.00,2005.10,2334.99,2547.01,599.69,604.75,50.32,0000 0000 0000 0000 000000
2016-02-19 01:49:00,0.04,4.10,0.00,22.08,25.84,29.68,14.78,50.87,1028.84,2039.00,2004.01,2334.83,2546.98,599.96,605.11,50.37,0000 0000 0000 0000 000000
2016-02-19 01:54:01,0.10,4.11,0.00,22.08,25.85,29.70,14.80,50.82,1028.89,2039.00,2002.77,2334.11,2546.35,600.12,605.16,50.42,0000 0000 0000 0000 000000
2016-02-19 01:59:03,0.04,4.11,0.00,22.10,25.86,29.66,14.86,50.71,1029.05,2038.99,2001.65,2334.01,2546.02,600.62,605.63,50.47,0000 0000 0000 0000 000000
2016-02-19 02:04:04,0.03,4.11,0.00,22.12,25.87,29.69,14.81,50.89,1029.21,2038.98,2000.68,2334.00,2546.00,600.01,605.24,50.52,0000 0000 0000 0000 000000
2016-02-19 02:09:05,0.03,4.11,0.00,22.14,25.89,29.72,14.77,50.87,1029.29,2038.98,1999.75,2333.98,2545.94,599.73,604.95,50.57,0000 0000 0000 0000 000000
2016-02-19 02:14:06,0.11,4.12,0.00,22.15,25.90,29.77,14.81,50.83,1029.31,2038.95,1998.28,2333.39,2545.15,599.75,605.01,50.62,0000 0000 0000 0000 000000
2016-02-19 02:19:08,0.12,4.12,0.00,22.18,25.91,29.74,14.84,50.88,1029.31,2038.92,1996.35,2332.40,2544.07,599.96,605.10,50.67,0000 0000 0000 0000 000000
2016-02-19 02:24:09,0.12,4.13,0.00,22.18,25.92,29.77,14.87,50.92,1029.32,2038.85,1994.53,2331.45,2543.09,600.02,605.17,50.72,0000 0000 0000 0000 000000
2016-02-19 02:29:10,0.14,4.14,0.00,22.19,25.95,29.78,14.90,50.89,1029.32,2038.73,1992.59,2330.29,2541.68,600.07,605.18,50.78,0000 0000 0000 0000 000000
2016-02-19 02:34:12,0.22,4.14,0.00,22.19,25.95,29.78,14.76,50.76,1029.33,2038.73,1990.22,2328.57,2539.92,599.87,604.98,50.83,0000 0000 0000 0000 000000
2016-02-19 02:39:13,0.20,4.16,0.00,22.21,25.97,29.78,14.83,50.84,1029.37,2038.45,1987.27,2326.71,2537.78,599.85,604.96,50.88,0000 0000 0000 0000 000000
2016-02-19 02:44:14,0.10,4.16,0.00,22.23,25.97,29.81,14.78,50.78,1029.69,2038.18,1985.29,2325.52,2536.48,599.96,605.23,50.93,0000 0000 0000 0000 000000
2016-02-19 02:49:16,0.04,4.17,0.00,22.24,26.00,29.84,14.79,50.85,1029.80,2038.11,1983.89,2325.01,2535.99,599.89,605.16,50.98,0000 0000 0000 0000 000000
2016-02-19 02:54:17,0.08,4.17,0.00,22.25,26.00,29.81,14.80,50.84,1029.80,2038.03,1982.58,2324.74,2535.28,599.86,605.22,51.03,0000 0000 0000 0000 000000
2016-02-19 02:59:18,0.06,4.17,0.00,22.28,26.02,29.86,14.84,50.89,1029.81,2038.03,1981.32,2324.09,2535.00,600.26,605.50,51.08,0000 0000 0000 0000 000000
2016-02-19 03:04:20,0.05,4.18,0.00,22.30,26.02,29.83,14.81,50.91,1029.80,2038.01,1980.04,2324.00,2534.63,599.89,605.14,51.13,0000 0000 0000 0000 000000
2016-02-19 03:09:21,0.05,4.18,0.00,22.30,26.05,29.88,14.87,50.92,1029.80,2038.01,1978.92,2323.95,2534.05,600.38,605.69,51.18,0000 0000 0000 0000 000000
2016-02-19 03:14:22,0.07,4.18,0.00,22.32,26.05,29.85,14.76,50.95,1029.81,2038.00,1977.76,2323.56,2534.00,599.87,605.02,51.23,0000 0000 0000 0000 000000
2016-02-19 03:19:23,0.05,4.19,0.00,22.33,26.07,29.89,14.78,51.08,1029.81,2038.00,1976.68,2323.06,2533.93,599.97,605.12,51.28,0000 0000 0000 0000 000000
2016-02-19 03:24:24,0.05,4.19,0.00,22.34,26.08,29.91,14.75,50.92,1030.03,2038.00,1975.64,2323.01,2533.32,599.78,605.02,51.33,0000 0000 0000 0000 000000
2016-02-19 03:29:25,0.03,4.19,0.00,22.36,26.10,29.95,14.81,51.01,1030.26,2038.00,1974.63,2323.00,2533.06,600.22,605.58,51.38,0000 0000 0000 0000 000000
2016-02-19 03:34:27,0.03,4.19,0.00,22.38,26.11,29.94,14.77,50.98,1030.28,2037.99,1973.52,2323.00,2533.01,599.95,605.14,51.43,0000 0000 0000 0000 000000
2016-02-19 03:39:28,0.04,4.19,0.00,22.41,26.12,29.95,14.81,50.99,1030.29,2037.97,1972.40,2322.97,2532.97,600.09,605.38,51.48,0000 0000 0000 0000 000000
2016-02-19 03:44:29,0.08,4.20,0.00,22.42,26.14,30.01,14.85,50.98,1030.29,2037.96,1971.21,2322.62,2532.53,600.15,605.43,51.53,0000 0000 0000 0000 000000
2016-02-19 03:49:30,0.06,4.20,0.00,22.43,26.15,30.00,14.87,51.17,1030.29,2037.89,1969.87,2322.03,2532.01,600.57,605.60,51.58,0000 0000 0000 0000 000000
2016-02-19 03:54:32,0.03,4.20,0.00,22.58,26.17,30.01,14.71,50.91,1030.29,2037.65,1968.47,2321.96,2531.72,599.72,604.69,51.63,0000 0000 0000 0000 000000
2016-02-19 03:59:33,0.06,4.21,0.00,22.97,26.20,30.14,14.80,50.95,1030.29,2037.38,1966.95,2321.28,2531.02,600.28,604.40,51.69,0000 0000 0000 0000 000000
2016-02-19 04:04:34,0.02,4.21,0.00,23.14,26.25,30.31,14.80,50.94,1030.30,2037.06,1965.74,2321.01,2530.84,600.25,603.88,51.74,0000 0000 0000 0000 000000
2016-02-19 04:09:36,0.06,4.21,0.00,23.21,26.30,30.34,14.73,50.91,1030.31,2037.00,1964.55,2320.94,2530.10,600.20,603.76,51.79,0000 0000 0000 0000 000000
2016-02-19 04:14:37,0.08,4.21,0.00,23.25,26.35,30.37,14.68,50.93,1030.63,2036.99,1963.38,2320.21,2529.85,599.76,603.56,51.84,0000 0000 0000 0000 000000
2016-02-19 04:19:38,0.03,4.22,0.00,23.33,26.40,30.41,14.68,51.02,1030.75,2036.76,1962.00,2319.99,2529.08,599.86,603.51,51.89,0000 0000 0000 0000 000000
2016-02-19 04:24:39,0.02,4.22,0.00,23.35,26.46,30.43,14.76,51.03,1030.78,2036.07,1960.75,2319.42,2528.74,600.09,603.69,51.94,0000 0000 0000 0000 000000
2016-02-19 04:29:40,0.05,4.22,0.00,23.39,26.52,30.50,14.76,51.06,1030.78,2036.01,1959.56,2319.01,2528.03,600.10,603.63,51.99,0000 0000 0000 0000 000000
2016-02-19 04:34:42,0.05,4.22,0.00,23.40,26.58,30.57,14.81,51.05,1030.78,2035.99,1958.29,2318.89,2527.82,600.09,603.59,52.04,0000 0000 0000 0000 000000
2016-02-19 04:39:43,0.04,4.23,0.00,23.37,26.63,30.65,14.74,50.74,1030.78,2035.73,1957.02,2318.16,2527.07,599.74,603.28,52.09,0000 0000 0000 0000 000000
2016-02-19 04:44:44,-0.01,4.23,0.00,23.32,26.68,30.76,14.66,50.93,1030.80,2035.15,1955.87,2318.00,2526.85,599.59,603.28,52.14,0000 0000 0000 0000 000000
2016-02-19 04:49:46,0.05,4.23,0.00,23.23,26.73,30.86,14.82,51.02,1030.83,2035.01,1954.75,2317.98,2526.12,600.19,604.09,52.19,0000 0000 0000 0000 000000
2016-02-19 04:54:47,0.03,4.23,0.00,23.11,26.76,30.96,14.81,51.05,1031.03,2035.00,1953.69,2317.92,2526.00,599.76,604.06,52.24,0000 0000 0000 0000 000000
2016-02-19 04:59:48,0.06,4.23,0.00,23.07,26.80,30.99,14.84,51.10,1031.24,2034.98,1952.60,2317.48,2525.97,600.04,604.48,52.29,0000 0000 0000 0000 000000
2016-02-19 05:04:50,0.07,4.24,0.00,23.15,26.83,30.98,14.74,51.02,1031.21,2034.92,1951.06,2317.03,2525.22,599.71,603.96,52.34,0000 0000 0000 0000 000000
2016-02-19 05:09:51,-0.03,4.24,0.00,23.30,26.87,30.95,14.73,51.07,1031.24,2034.54,1949.94,2317.00,2525.00,599.75,603.64,52.39,0000 0000 0000 0000 000000
2016-02-19 05:14:52,0.00,4.24,0.00,23.37,26.91,30.96,14.72,51.06,1031.26,2034.10,1948.91,2316.96,2524.95,599.95,603.82,52.44,0000 0000 0000 0000 000000
2016-02-19 05:19:54,0.08,4.24,0.00,23.48,26.95,30.99,14.74,51.04,1031.32,2034.01,1947.89,2316.49,2524.34,600.14,603.79,52.49,0000 0000 0000 0000 000000
2016-02-19 05:24:55,0.05,4.24,0.00,23.54,26.99,31.00,14.80,51.32,1031.31,2034.00,1946.84,2316.07,2524.02,600.01,603.52,52.55,0000 0000 0000 0000 000000
2016-02-19 05:29:56,0.14,4.25,0.00,23.57,27.04,31.04,14.83,51.31,1031.52,2033.99,1944.92,2315.66,2523.53,600.13,603.75,52.60,0000 0000 0000 0000 000000
2016-02-19 05:34:57,0.12,4.26,0.00,23.64,27.08,31.06,14.72,51.17,1031.70,2033.93,1942.36,2314.89,2522.18,599.69,603.27,52.65,0000 0000 0000 0000 000000
2016-02-19 05:39:59,0.05,4.26,0.00,23.68,27.12,31.07,14.79,51.34,1031.75,2033.40,1940.34,2314.09,2521.53,599.96,603.45,52.70,0000 0000 0000 0000 000000
2016-02-19 05:45:00,0.07,4.26,0.00,23.72,27.16,31.09,14.81,51.27,1031.77,2033.07,1938.53,2313.47,2520.99,600.29,603.70,52.75,0000 0000 0000 0000 000000
2016-02-19 05:50:01,0.06,4.27,0.00,23.68,27.20,31.12,14.74,51.25,1031.79,2033.01,1937.42,2313.03,2520.57,599.82,603.36,52.80,0000 0000 0000 0000 000000
2016-02-19 05:55:03,0.03,4.27,0.00,23.67,27.24,31.18,14.73,51.33,1032.10,2033.00,1936.39,2313.01,2520.04,599.88,603.60,52.85,0000 0000 0000 0000 000000
2016-02-19 06:00:04,0.03,4.27,0.00,23.74,27.27,31.20,14.75,51.23,1032.20,2033.00,1935.36,2313.00,2520.00,599.84,603.57,52.90,0000 0000 0000 0000 000000
2016-02-19 06:05:05,0.02,4.27,0.00,23.72,27.31,31.25,14.80,51.34,1032.24,2032.93,1934.28,2312.98,2520.00,600.19,603.97,52.95,0000 0000 0000 0000 000000
2016-02-19 06:10:07,-0.02,4.27,0.00,23.76,27.34,31.27,14.79,51.31,1032.24,2032.55,1933.37,2312.92,2519.80,600.31,603.98,53.00,0000 0000 0000 0000 000000
2016-02-19 06:15:08,0.04,4.27,0.00,23.81,27.37,31.28,14.80,51.24,1032.26,2032.12,1932.33,2312.46,2519.11,600.35,603.92,53.05,0000 0000 0000 0000 000000
2016-02-19 06:20:09,0.03,4.27,0.00,23.81,27.41,31.31,14.69,51.19,1032.32,2032.01,1931.36,2312.15,2519.00,599.85,603.47,53.10,0000 0000 0000 0000 000000
2016-02-19 06:25:10,0.03,4.28,0.00,23.79,27.43,31.31,14.76,51.22,1032.63,2032.00,1930.40,2312.06,2519.00,599.84,603.84,53.15,0000 0000 0000 0000 000000
2016-02-19 06:30:11,0.03,4.28,0.00,23.79,27.46,31.35,14.73,51.22,1032.71,2032.00,1929.38,2312.01,2518.96,599.96,603.73,53.20,0000 0000 0000 0000 000000
2016-02-19 06:35:13,0.04,4.28,0.00,23.80,27.49,31.37,14.77,51.32,1032.73,2032.00,1928.39,2312.00,2518.68,600.04,603.84,53.25,0000 0000 0000 0000 000000
2016-02-19 06:40:14,0.04,4.28,0.00,23.85,27.51,31.38,14.78,51.33,1032.74,2031.99,1927.37,2312.00,2518.15,599.85,603.61,53.30,0000 0000 0000 0000 000000
2016-02-19 06:45:15,0.03,4.28,0.00,23.85,27.54,31.40,14.76,51.34,1032.74,2031.96,1926.49,2311.99,2518.04,600.35,604.02,53.35,0000 0000 0000 0000 000000
2016-02-19 06:50:16,0.02,4.29,0.00,23.86,27.56,31.40,14.75,51.23,1032.79,2031.81,1925.54,2311.98,2518.00,599.82,603.73,53.40,0000 0000 0000 0000 000000
2016-02-19 06:55:18,-0.02,4.29,0.00,23.89,27.58,31.41,14.80,51.23,1032.81,2031.44,1924.63,2311.98,2518.00,600.37,604.08,53.46,0000 0000 0000 0000 000000
2016-02-19 07:00:19,0.01,4.28,0.00,23.89,27.60,31.44,14.73,51.34,1032.98,2031.09,1923.71,2311.94,2517.99,600.00,603.76,53.51,0000 0000 0000 0000 000000
2016-02-19 07:05:20,0.02,4.29,0.00,23.87,27.62,31.45,14.80,51.37,1033.21,2031.02,1922.74,2311.90,2517.97,600.29,604.34,53.56,0000 0000 0000 0000 000000
2016-02-19 07:10:21,0.03,4.29,0.00,23.87,27.64,31.49,14.77,51.28,1033.23,2031.00,1921.87,2311.80,2517.75,599.91,603.97,53.61,0000 0000 0000 0000 000000
2016-02-19 07:15:22,0.05,4.29,0.00,23.90,27.66,31.47,14.65,51.21,1033.28,2031.00,1920.97,2311.68,2517.38,599.76,603.74,53.66,0000 0000 0000 0000 000000
2016-02-19 07:20:23,0.05,4.29,0.00,23.95,27.67,31.47,14.84,51.27,1033.48,2030.99,1920.09,2311.38,2517.06,600.13,604.05,53.71,0000 0000 0000 0000 000000
2016-02-19 07:25:25,0.04,4.29,0.00,24.18,27.70,31.45,14.77,51.21,1033.64,2030.99,1919.28,2311.26,2517.02,599.99,603.70,53.76,0000 0000 0000 0000 000000
2016-02-19 07:30:26,0.03,4.30,0.00,24.19,27.71,31.48,14.69,51.24,1033.70,2030.98,1918.36,2311.23,2517.00,599.91,603.53,53.81,0000 0000 0000 0000 000000
2016-02-19 07:35:27,0.06,4.30,0.00,24.04,27.72,31.49,14.72,51.23,1033.71,2030.97,1916.98,2311.05,2516.98,600.05,604.05,53.86,0000 0000 0000 0000 000000
2016-02-19 07:40:29,0.04,4.30,0.00,23.98,27.72,31.51,14.72,51.25,1033.72,2030.96,1915.78,2311.00,2516.96,599.83,603.92,53.91,0000 0000 0000 0000 000000
2016-02-19 07:45:30,0.02,4.30,0.00,23.99,27.74,31.50,14.87,51.26,1034.03,2030.86,1914.86,2311.00,2516.73,600.21,604.40,53.96,0000 0000 0000 0000 000000
2016-02-19 07:50:32,0.02,4.31,0.00,24.02,27.75,31.49,14.81,51.18,1034.19,2030.75,1913.91,2310.98,2516.42,600.04,604.37,54.01,0000 0000 0000 0000 000000
2016-02-19 07:55:33,0.13,4.31,0.00,24.22,27.76,31.47,14.79,51.25,1034.19,2030.57,1912.23,2310.11,2515.30,599.98,603.94,54.06,0000 0000 0000 0000 000000
2016-02-19 08:00:35,0.13,4.32,0.00,24.16,27.77,31.50,14.64,51.10,1034.19,2030.47,1909.96,2309.22,2514.62,599.83,603.81,54.11,0000 0000 0000 0000 000000
2016-02-19 08:05:36,0.14,4.32,0.00,24.07,27.77,31.50,14.76,51.36,1034.21,2030.22,1907.03,2308.16,2513.49,600.48,604.59,54.16,0000 0000 0000 0000 000000
2016-02-19 08:10:37,0.04,4.33,0.00,24.09,27.78,31.48,14.74,51.27,1034.28,2030.27,1905.74,2308.00,2513.06,600.05,604.19,54.21,0000 0000 0000 0000 000000
2016-02-19 08:15:39,0.02,4.33,0.00,24.18,27.80,31.47,14.73,51.24,1034.58,2030.09,1904.78,2308.00,2513.01,599.97,604.23,54.26,0000 0000 0000 0000 000000
2016-02-19 08:20:40,0.02,4.33,0.00,24.34,27.80,31.47,14.76,51.24,1034.68,2030.04,1903.96,2308.00,2513.00,600.11,604.04,54.31,0000 0000 0000 0000 000000
2016-02-19 08:25:41,0.03,4.33,0.00,24.21,27.80,31.49,14.79,51.52,1034.68,2030.03,1903.08,2308.00,2513.00,600.30,604.32,54.37,0000 0000 0000 0000 000000
2016-02-19 08:30:42,0.04,4.33,0.00,24.12,27.80,31.48,14.82,51.54,1034.68,2030.05,1902.08,2308.00,2512.99,599.96,604.34,54.42,0000 0000 0000 0000 000000
2016-02-19 08:35:44,0.03,4.34,0.00,24.22,27.82,31.49,14.76,51.40,1034.70,2030.01,1901.10,2308.00,2512.99,600.12,604.28,54.47,0000 0000 0000 0000 000000
2016-02-19 08:40:45,0.03,4.34,0.00,24.41,27.82,31.48,14.73,51.14,1034.85,2030.00,1900.32,2308.00,2512.99,600.13,603.85,54.52,0000 0000 0000 0000 000000
2016-02-19 08:45:46,0.03,4.34,0.00,24.41,27.82,31.47,14.79,51.44,1035.13,2030.00,1899.52,2308.00,2512.99,599.72,603.72,54.57,0000 0000 0000 0000 000000
2016-02-19 08:50:48,0.02,4.34,0.00,24.27,27.82,31.48,14.79,51.36,1035.18,2030.00,1898.70,2308.00,2512.99,600.12,604.50,54.62,0000 0000 0000 0000 000000
2016-02-19 08:55:49,0.04,4.34,0.00,24.24,27.82,31.47,14.72,51.41,1035.19,2030.00,1897.70,2307.99,2512.98,599.89,604.29,54.67,0000 0000 0000 0000 000000
2016-02-19 09:00:50,0.03,4.34,0.00,24.41,27.82,31.45,14.70,51.27,1035.21,2030.00,1896.68,2307.99,2512.97,599.93,604.02,54.72,0000 0000 0000 0000 000000
2016-02-19 09:05:51,0.01,4.34,0.00,24.38,27.82,31.47,14.76,51.34,1035.51,2030.00,1895.91,2307.99,2512.98,599.92,604.23,54.77,0000 0000 0000 0000 000000
2016-02-19 09:10:52,0.03,4.35,0.00,24.36,27.83,31.43,14.73,51.30,1035.63,2030.00,1895.08,2307.99,2512.97,600.08,604.64,54.82,0000 0000 0000 0000 000000
2016-02-19 09:15:53,0.03,4.35,0.00,24.50,27.83,31.43,14.74,51.29,1035.66,2030.00,1894.27,2308.00,2512.99,600.27,604.42,54.87,0000 0000 0000 0000 000000
2016-02-19 09:20:54,0.02,4.35,0.00,24.54,27.83,31.43,14.83,51.36,1035.66,2030.00,1893.71,2308.02,2512.99,600.26,604.37,54.92,0000 0000 0000 0000 000000
2016-02-19 09:25:55,0.01,4.35,0.00,24.37,27.83,31.44,14.76,51.27,1035.77,2030.00,1892.97,2308.09,2513.01,599.99,604.37,54.97,0000 0000 0000 0000 000000
2016-02-19 09:30:57,0.02,4.35,0.00,24.38,27.82,31.42,14.74,51.48,1035.70,2030.00,1892.14,2308.36,2513.05,599.83,604.19,55.02,0000 0000 0000 0000 000000
2016-02-19 09:35:58,0.01,4.35,0.00,24.52,27.82,31.41,14.78,51.35,1035.68,2030.00,1891.49,2308.80,2513.11,600.13,604.23,55.07,0000 0000 0000 0000 000000
2016-02-19 09:41:00,0.02,4.35,0.00,24.50,27.82,31.42,14.78,51.48,1035.86,2030.00,1890.75,2308.90,2513.16,600.05,604.26,55.12,0000 0000 0000 0000 000000
2016-02-19 09:46:01,0.09,4.35,0.00,24.37,27.82,31.42,14.71,51.33,1036.13,2030.00,1889.33,2308.31,2513.02,599.90,604.58,55.17,0000 0000 0000 0000 000000
2016-02-19 09:51:03,0.08,4.36,0.00,24.47,27.82,31.41,14.77,51.35,1036.16,2030.00,1887.58,2307.99,2512.52,600.16,604.66,55.22,0000 0000 0000 0000 000000
2016-02-19 09:56:04,0.03,4.36,0.00,24.59,27.82,31.40,14.79,51.46,1036.17,2030.00,1886.60,2307.98,2512.22,600.19,604.40,55.27,0000 0000 0000 0000 000000
2016-02-19 10:01:05,0.02,4.36,0.00,24.61,27.82,31.40,14.69,51.42,1036.17,2030.00,1885.76,2307.97,2512.16,599.99,604.16,55.33,0000 0000 0000 0000 000000
2016-02-19 10:06:06,0.03,4.37,0.00,24.47,27.82,31.40,14.74,51.41,1036.16,2030.00,1884.89,2307.98,2512.15,599.93,604.49,55.38,0000 0000 0000 0000 000000
2016-02-19 10:11:07,0.04,4.37,0.00,24.54,27.82,31.38,14.74,51.45,1036.15,2030.00,1883.83,2307.97,2512.03,600.18,604.53,55.43,0000 0000 0000 0000 000000
2016-02-19 10:16:09,0.02,4.37,0.00,24.61,27.80,31.37,14.73,51.39,1036.18,2030.00,1882.96,2307.93,2512.01,599.84,604.05,55.48,0000 0000 0000 0000 000000
2016-02-19 10:21:10,0.03,4.37,0.00,24.58,27.80,31.38,14.73,51.47,1036.35,2030.00,1882.09,2307.96,2512.01,599.73,604.10,55.53,0000 0000 0000 0000 000000
2016-02-19 10:26:11,0.03,4.37,0.00,24.57,27.80,31.37,14.79,51.56,1036.63,2030.00,1881.42,2307.99,2512.04,599.88,604.46,55.58,0000 0000 0000 0000 000000
2016-02-19 10:31:12,0.01,4.37,0.00,24.63,27.80,31.36,14.78,51.39,1036.64,2030.00,1880.85,2307.99,2512.08,600.26,604.80,55.63,0000 0000 0000 0000 000000
2016-02-19 10:36:14,0.02,4.38,0.00,24.64,27.79,31.36,14.74,51.53,1036.65,2030.00,1880.03,2307.99,2512.19,599.71,604.35,55.68,0000 0000 0000 0000 000000
2016-02-19 10:41:15,0.02,4.38,0.00,24.57,27.77,31.37,14.76,51.48,1036.66,2030.00,1879.33,2307.99,2512.53,600.46,605.07,55.73,0000 0000 0000 0000 000000
2016-02-19 10:46:16,0.01,4.38,0.00,24.60,27.77,31.35,14.74,51.44,1036.68,2030.00,1878.80,2308.00,2512.61,599.67,604.25,55.78,0000 0000 0000 0000 000000
2016-02-19 10:51:18,0.02,4.38,0.00,24.64,27.77,31.34,14.65,51.39,1036.82,2030.00,1878.03,2308.00,2512.73,599.81,604.34,55.83,0000 0000 0000 0000 000000
2016-02-19 10:56:19,0.04,4.38,0.00,24.56,27.75,31.34,14.76,51.42,1037.10,2030.00,1877.23,2308.00,2512.56,599.89,604.82,55.88,0000 0000 0000 0000 000000
2016-02-19 11:01:20,0.02,4.38,0.00,24.64,27.75,31.34,14.77,51.40,1037.12,2030.00,1876.62,2308.01,2512.67,600.11,604.71,55.93,0000 0000 0000 0000 000000
2016-02-19 11:06:22,0.01,4.38,0.00,24.59,27.75,31.34,14.73,51.38,1037.12,2030.00,1875.97,2308.01,2512.61,599.82,604.69,55.98,0000 0000 0000 0000 000000
2016-02-19 11:11:23,0.03,4.38,0.00,24.67,27.75,31.33,14.76,51.48,1037.12,2030.01,1875.13,2308.04,2512.76,599.91,604.55,56.03,0000 0000 0000 0000 000000
2016-02-19 11:16:24,0.02,4.38,0.00,24.70,27.74,31.33,14.72,51.48,1037.13,2030.01,1874.53,2308.04,2512.83,600.09,604.66,56.08,0000 0000 0000 0000 000000
2016-02-19 11:21:25,0.01,4.39,0.00,24.64,27.72,31.32,14.74,51.49,1037.15,2030.01,1873.86,2308.04,2512.86,600.04,604.73,56.13,0000 0000 0000 0000 000000
2016-02-19 11:26:27,0.03,4.39,0.00,24.66,27.72,31.32,14.76,51.58,1037.41,2030.02,1873.05,2308.07,2512.88,600.06,604.90,56.18,0000 0000 0000 0000 000000
2016-02-19 11:31:28,0.03,4.39,0.00,24.68,27.72,31.30,14.70,51.63,1037.45,2030.02,1872.34,2308.04,2512.83,599.72,604.61,56.24,0000 0000 0000 0000 000000
2016-02-19 11:36:30,0.01,4.39,0.00,24.67,27.71,31.28,14.73,51.77,1037.57,2030.05,1871.84,2308.10,2512.89,600.03,605.03,56.29,0000 0000 0000 0000 000000
2016-02-19 11:41:31,0.01,4.39,0.00,24.68,27.70,31.28,14.74,51.48,1037.61,2030.04,1871.06,2308.34,2512.94,600.08,604.98,56.34,0000 0000 0000 0000 000000
2016-02-19 11:46:32,0.02,4.39,0.00,24.66,27.70,31.28,14.66,51.60,1037.62,2030.04,1870.44,2308.59,2512.98,599.72,604.79,56.39,0000 0000 0000 0000 000000
2016-02-19 11:51:34,0.02,4.39,0.00,24.69,27.70,31.26,14.69,51.67,1037.64,2030.05,1869.87,2308.59,2512.98,599.88,604.75,56.44,0000 0000 0000 0000 000000
2016-02-19 11:56:35,0.02,4.39,0.00,24.63,27.69,31.27,14.71,51.65,1037.63,2030.12,1869.06,2308.78,2512.99,600.20,605.28,56.49,0000 0000 0000 0000 000000
2016-02-19 12:01:36,0.02,4.39,0.00,24.67,27.67,31.26,14.76,51.66,1037.66,2030.13,1868.50,2308.85,2512.98,600.28,605.25,56.54,0000 0000 0000 0000 000000
2016-02-19 12:06:37,0.01,4.40,0.00,24.71,27.67,31.24,14.72,51.65,1037.71,2030.13,1867.98,2308.91,2512.99,600.42,605.33,56.59,0000 0000 0000 0000 000000
2016-02-19 12:11:39,0.03,4.40,0.00,24.72,27.67,31.23,14.71,51.68,1037.71,2030.21,1867.21,2308.96,2512.99,599.89,604.88,56.64,0000 0000 0000 0000 000000
2016-02-19 12:16:40,0.02,4.40,0.00,24.72,27.67,31.23,14.77,51.67,1037.90,2030.29,1866.76,2308.97,2512.99,600.08,605.03,56.69,0000 0000 0000 0000 000000
2016-02-19 12:21:41,0.01,4.40,0.00,24.71,27.67,31.24,14.69,51.46,1038.08,2030.24,1866.05,2308.98,2512.99,599.68,604.76,56.74,0000 0000 0000 0000 000000
2016-02-19 12:26:43,0.03,4.40,0.00,24.74,27.67,31.23,14.76,51.47,1038.09,2030.34,1865.53,2308.99,2512.99,600.44,605.50,56.79,0000 0000 0000 0000 000000
2016-02-19 12:31:44,0.04,4.40,0.00,24.74,27.65,31.23,14.72,51.58,1038.10,2030.40,1864.99,2308.99,2512.99,600.04,605.14,56.84,0000 0000 0000 0000 000000
2016-02-19 12:36:45,-0.00,4.40,0.00,24.71,27.65,31.22,14.73,51.51,1038.10,2030.19,1864.28,2308.99,2512.99,599.85,604.94,56.89,0000 0000 0000 0000 000000
2016-02-19 12:41:47,0.03,4.40,0.00,24.73,27.65,31.22,14.72,51.72,1038.11,2030.29,1863.66,2308.99,2512.98,599.88,604.92,56.94,0000 0000 0000 0000 000000
2016-02-19 12:46:48,0.03,4.40,0.00,24.72,27.65,31.21,14.73,51.83,1038.12,2030.26,1862.95,2308.94,2512.95,599.79,604.91,56.99,0000 0000 0000 0000 000000
2016-02-19 12:51:49,0.05,4.41,0.00,24.71,27.64,31.21,14.78,51.74,1038.18,2030.42,1862.16,2308.93,2512.95,600.14,605.33,57.04,0000 0000 0000 0000 000000
2016-02-19 12:56:50,0.06,4.41,0.00,24.75,27.62,31.20,14.66,51.58,1038.13,2030.45,1861.52,2308.58,2512.47,599.43,604.36,57.09,0000 0000 0000 0000 000000